| time (UTC) | temp F | wind direction | speed knots | gust knots | rain 1hr in | rain 24hr in | rain mn in | humidity % | barometer mb |
| 20260504081542 | 46 | 0 | 0.0 | 0.0 | 0.00 | 0.00 | 0.00 | 73 | 1015.3 |
| 20260504044544 | 43 | 0 | 0.0 | 0.0 | 0.00 | 0.00 | 0.00 | 74 | 1015.6 |
| 20260504043043 | 42 | 0 | 0.0 | 0.0 | 0.00 | 0.00 | 0.00 | 73 | 1015.6 |
| 20260504041541 | 44 | 0 | 0.0 | 0.0 | 0.00 | 0.00 | 0.00 | 69 | 1015.6 |
| 20260504040048 | 45 | 0 | 0.0 | 0.0 | 0.00 | 0.00 | 0.00 | 68 | 1015.7 |
| 20260504034542 | 43 | 0 | 0.0 | 0.0 | 0.00 | 0.00 | 0.00 | 69 | 1015.6 |
| 20260504033052 | 42 | 0 | 0.0 | 0.0 | 0.00 | 0.00 | 0.00 | 70 | 1015.5 |
| 20260504031550 | 43 | 0 | 0.0 | 0.0 | 0.00 | 0.00 | 0.00 | 72 | 1015.3 |
| 20260504030043 | 44 | 0 | 0.0 | 0.0 | 0.00 | 0.00 | 0.00 | 71 | 1015.2 |
| 20260504024554 | 44 | 0 | 0.0 | 0.0 | 0.00 | 0.00 | 0.00 | 68 | 1015.2 |
| 20260504023044 | 44 | 0 | 0.0 | 0.0 | 0.00 | 0.00 | 0.00 | 68 | 1015.2 |
| 20260504021551 | 45 | 0 | 0.0 | 0.0 | 0.00 | 0.00 | 0.00 | 67 | 1015.1 |
| 20260504020047 | 46 | 0 | 0.0 | 0.0 | 0.00 | 0.00 | 0.00 | 65 | 1015.1 |
| 20260504014543 | 46 | 0 | 0.0 | 0.0 | 0.00 | 0.00 | 0.00 | 64 | 1015.0 |
| 20260504013047 | 47 | 0 | 0.0 | 0.0 | 0.00 | 0.00 | 0.00 | 61 | 1015.1 |
| 20260504011546 | 48 | 0 | 0.0 | 0.0 | 0.00 | 0.00 | 0.00 | 60 | 1014.9 |
| 20260504010046 | 49 | 0 | 0.0 | 0.0 | 0.00 | 0.00 | 0.00 | 56 | 1014.9 |
| 20260504004556 | 50 | 0 | 0.0 | 0.0 | 0.00 | 0.00 | 0.00 | 54 | 1014.6 |
| 20260504003042 | 52 | 0 | 0.0 | 0.0 | 0.00 | 0.00 | 0.00 | 51 | 1014.5 |
| 20260504001543 | 55 | 0 | 0.0 | 0.0 | 0.00 | 0.00 | 0.00 | 44 | 1014.3 |
| 20260504000050 | 57 | 0 | 0.0 | 3.5 | 0.00 | 0.00 | 0.00 | 38 | 1014.3 |
| 20260503234542 | 59 | 245 | 1.7 | 7.8 | 0.00 | 0.00 | 0.00 | 35 | 1014.1 |
| 20260503233041 | 59 | 272 | 1.7 | 5.2 | 0.00 | 0.00 | 0.00 | 34 | 1014.1 |
| 20260503231549 | 60 | 250 | 2.6 | 8.7 | 0.00 | 0.00 | 0.00 | 34 | 1013.9 |
| 20260503230051 | 60 | 288 | 1.7 | 5.2 | 0.00 | 0.00 | 0.00 | 34 | 1013.8 |
| 20260503224546 | 60 | 283 | 5.2 | 12.2 | 0.00 | 0.00 | 0.00 | 31 | 1013.9 |
| 20260503223043 | 60 | 316 | 7.0 | 13.0 | 0.00 | 0.00 | 0.00 | 31 | 1014.1 |
| 20260503221543 | 60 | 296 | 6.1 | 13.0 | 0.00 | 0.00 | 0.00 | 31 | 1014.1 |
| 20260503220048 | 60 | 278 | 6.1 | 10.4 | 0.00 | 0.00 | 0.00 | 31 | 1013.9 |
| 20260503214545 | 60 | 224 | 4.3 | 13.9 | 0.00 | 0.00 | 0.00 | 32 | 1014.0 |
| 20260503213043 | 60 | 291 | 4.3 | 10.4 | 0.00 | 0.00 | 0.00 | 32 | 1014.0 |
| 20260503211542 | 60 | 295 | 2.6 | 13.0 | 0.00 | 0.00 | 0.00 | 33 | 1013.9 |
| 20260503210040 | 60 | 290 | 7.8 | 14.8 | 0.00 | 0.00 | 0.00 | 32 | 1014.2 |
| 20260503204548 | 60 | 236 | 7.8 | 14.8 | 0.00 | 0.00 | 0.00 | 33 | 1014.0 |
| 20260503203042 | 59 | 321 | 5.2 | 13.0 | 0.00 | 0.00 | 0.00 | 33 | 1014.2 |
| 20260503201542 | 59 | 257 | 7.8 | 14.8 | 0.00 | 0.00 | 0.00 | 34 | 1014.5 |
| 20260503200041 | 58 | 278 | 8.7 | 14.8 | 0.00 | 0.00 | 0.00 | 35 | 1014.5 |
| 20260503194543 | 58 | 330 | 6.1 | 15.6 | 0.00 | 0.00 | 0.00 | 36 | 1014.8 |
| 20260503193055 | 58 | 252 | 8.7 | 17.4 | 0.00 | 0.00 | 0.00 | 37 | 1015.1 |
| 20260503191543 | 57 | 269 | 6.1 | 14.8 | 0.00 | 0.00 | 0.00 | 39 | 1015.3 |
| 20260503190047 | 56 | 298 | 9.6 | 17.4 | 0.00 | 0.00 | 0.00 | 39 | 1015.3 |
| 20260503184554 | 56 | 248 | 7.0 | 16.5 | 0.00 | 0.00 | 0.00 | 40 | 1015.4 |
| 20260503183044 | 55 | 262 | 6.1 | 16.5 | 0.00 | 0.00 | 0.00 | 42 | 1015.6 |
| 20260503181542 | 55 | 281 | 9.6 | 18.2 | 0.00 | 0.00 | 0.00 | 40 | 1015.8 |
| 20260503180042 | 54 | 236 | 5.2 | 14.8 | 0.00 | 0.00 | 0.00 | 42 | 1016.0 |
| 20260503174600 | 54 | 304 | 5.2 | 19.1 | 0.00 | 0.00 | 0.00 | 42 | 1016.1 |
| 20260503173057 | 54 | 254 | 8.7 | 16.5 | 0.00 | 0.00 | 0.00 | 40 | 1016.2 |
| 20260503171542 | 53 | 37 | 8.7 | 18.2 | 0.00 | 0.00 | 0.00 | 43 | 1016.3 |